Location: ??????????
(54.8537°N, 38.8755°E)
Time: 01:58:34
(UTC+00:00)

Transit 4A - Pass Details

Date: 14 September 2024
Orbit: 865 x 977 km, 66.8° (Epoch: 09 October)

Event Time Altitude Azimuth Distance (km) Brightness Sun altitude
Exits shadow 23:39:56 19° 145° (SE) 1,967 9.4 -25.4°
Maximum altitude 23:42:23 25° 110° (ESE) 1,712 9.4 -25.2°
Drops below altitude 10° 23:47:09 10° 57° (ENE) 2,598 11.2 -24.7°
Sets 23:50:06 0° 45° (NE) 3,564 12.4 -24.5°
